TimeMDT,TemperatureF,Dew PointF,Humidity,Sea Level PressureIn,VisibilityMPH,Wind Direction,Wind SpeedMPH,Gust SpeedMPH,PrecipitationIn,Events,Conditions,WindDirDegrees,DateUTC
7:55 AM,-9999,-9999,N/A,-9999,-9999.0,North,-9999.0,-,N/A,,Unknown,0,2013-05-14 13:55:00
8:15 AM,70.9,44.8,39,30.03,10.0,Calm,Calm,-,N/A,,Clear,0,2013-05-14 14:15:00
8:35 AM,73.6,43.2,34,30.04,10.0,Calm,Calm,-,N/A,,Clear,0,2013-05-14 14:35:00
8:55 AM,77.0,40.8,27,30.04,10.0,Calm,Calm,-,N/A,,Clear,0,2013-05-14 14:55:00
9:15 AM,78.8,38.3,23,30.03,10.0,Calm,Calm,-,N/A,,Clear,0,2013-05-14 15:15:00
9:35 AM,79.9,34.9,20,30.03,10.0,SSE,4.6,-,N/A,,Clear,150,2013-05-14 15:35:00
9:55 AM,80.6,34.5,19,30.03,10.0,SE,3.5,-,N/A,,Clear,140,2013-05-14 15:55:00
10:15 AM,81.9,37.0,20,30.03,10.0,ESE,3.5,-,N/A,,Clear,120,2013-05-14 16:15:00
10:35 AM,82.4,36.0,19,30.02,10.0,SE,4.6,-,N/A,,Clear,130,2013-05-14 16:35:00
10:55 AM,83.3,32.7,16,30.02,10.0,Calm,Calm,-,N/A,,Clear,0,2013-05-14 16:55:00
11:15 AM,84.2,34.0,17,30.02,10.0,SE,4.6,-,N/A,,Clear,140,2013-05-14 17:15:00
11:35 AM,84.2,34.2,17,30.02,10.0,ESE,8.1,-,N/A,,Clear,110,2013-05-14 17:35:00
11:55 AM,84.9,36.1,18,30.01,10.0,ESE,5.8,-,N/A,,Clear,120,2013-05-14 17:55:00
12:15 PM,84.4,33.3,16,30.01,10.0,NW,10.4,-,N/A,,Clear,310,2013-05-14 18:15:00
12:35 PM,83.5,32.4,16,30.00,10.0,WNW,15.0,24.2,N/A,,Scattered Clouds,290,2013-05-14 18:35:00
12:55 PM,81.1,34.0,18,30.00,10.0,NW,6.9,-,N/A,,Scattered Clouds,320,2013-05-14 18:55:00
1:15 PM,84.4,30.9,15,29.99,10.0,NW,9.2,-,N/A,,Scattered Clouds,310,2013-05-14 19:15:00
1:35 PM,84.9,33.1,16,29.98,10.0,WNW,12.7,19.6,N/A,,Clear,290,2013-05-14 19:35:00
1:55 PM,83.8,30.0,14,29.98,10.0,West,12.7,18.4,N/A,,Clear,270,2013-05-14 19:55:00
2:15 PM,84.2,35.6,18,29.99,10.0,WNW,10.4,19.6,N/A,,Clear,300,2013-05-14 20:15:00
2:35 PM,80.1,32.2,18,29.98,10.0,South,8.1,20.7,N/A,,Clear,180,2013-05-14 20:35:00
2:55 PM,77.7,36.1,22,29.98,10.0,SSW,8.1,-,N/A,,Clear,200,2013-05-14 20:55:00
3:15 PM,77.5,39.0,25,29.98,10.0,South,11.5,-,N/A,,Clear,190,2013-05-14 21:15:00
3:35 PM,78.8,33.4,19,29.97,10.0,SSE,10.4,-,N/A,,Clear,160,2013-05-14 21:35:00
3:55 PM,78.1,36.9,23,29.96,10.0,SW,4.6,-,N/A,,Clear,220,2013-05-14 21:55:00
4:15 PM,79.9,33.4,19,29.97,10.0,West,10.4,-,N/A,,Clear,280,2013-05-14 22:15:00
4:35 PM,79.7,36.1,21,29.97,10.0,WNW,13.8,26.5,N/A,,Clear,300,2013-05-14 22:35:00
4:55 PM,77.5,37.9,24,29.96,10.0,WSW,12.7,-,N/A,,Clear,250,2013-05-14 22:55:00
5:15 PM,79.5,37.8,22,29.96,10.0,West,11.5,18.4,N/A,,Clear,260,2013-05-14 23:15:00
5:35 PM,76.3,37.8,25,29.95,10.0,SSW,16.1,24.2,N/A,,Clear,210,2013-05-14 23:35:00
5:55 PM,75.4,37.2,25,29.94,10.0,SSW,19.6,-,N/A,,Clear,200,2013-05-14 23:55:00
6:15 PM,75.2,37.6,26,29.95,10.0,SSW,12.7,19.6,N/A,,Clear,200,2013-05-15 00:15:00
6:35 PM,74.3,37.4,26,29.95,10.0,SSW,16.1,23.0,N/A,,Clear,200,2013-05-15 00:35:00
6:55 PM,72.1,36.7,27,29.96,10.0,SSW,13.8,-,N/A,,Clear,200,2013-05-15 00:55:00
7:15 PM,71.1,37.4,29,29.96,10.0,South,5.8,-,N/A,,Clear,190,2013-05-15 01:15:00
7:35 PM,70.7,37.9,30,29.98,10.0,SSE,9.2,-,N/A,,Clear,160,2013-05-15 01:35:00
7:55 PM,69.8,37.9,31,29.98,10.0,South,6.9,-,N/A,,Clear,180,2013-05-15 01:55:00
8:15 PM,68.4,38.8,34,29.97,10.0,SW,6.9,-,N/A,,Clear,230,2013-05-15 02:15:00
8:35 PM,66.9,40.6,38,29.96,10.0,SW,5.8,-,N/A,,Clear,220,2013-05-15 02:35:00
8:55 PM,67.8,39.6,36,29.96,10.0,WSW,5.8,-,N/A,,Clear,250,2013-05-15 02:55:00
9:15 PM,66.7,40.1,38,29.97,10.0,SSW,4.6,-,N/A,,Clear,200,2013-05-15 03:15:00
9:35 PM,67.6,38.1,34,29.98,10.0,SSW,3.5,-,N/A,,Clear,210,2013-05-15 03:35:00
9:55 PM,66.2,39.0,37,29.98,10.0,West,5.8,-,N/A,,Clear,280,2013-05-15 03:55:00
10:15 PM,66.6,37.8,35,29.98,10.0,West,4.6,-,N/A,,Clear,280,2013-05-15 04:15:00
10:35 PM,65.3,38.5,37,29.97,10.0,WNW,4.6,-,N/A,,Clear,290,2013-05-15 04:35:00
10:55 PM,65.3,37.9,36,29.97,10.0,WSW,3.5,-,N/A,,Clear,250,2013-05-15 04:55:00
11:15 PM,65.3,39.2,38,29.97,10.0,SSW,3.5,-,N/A,,Clear,200,2013-05-15 05:15:00
11:35 PM,69.1,35.1,29,29.96,10.0,West,12.7,16.1,N/A,,Mostly Cloudy,270,2013-05-15 05:35:00
11:55 PM,70.7,34.3,26,29.96,10.0,West,10.4,20.7,N/A,,Overcast,280,2013-05-15 05:55:00